Погода в Дюллюкю

Россия / Республика Саха (Якутия)     63°41′15″N   120°27′55″E
темп.,
°C
ветер,
м/с
пор.,
м/с
влажн.,
%
обл.,
%
осадки,
мм/ч
давл.,
гПа
погр.,
м
27 февраля, сб
сб2700:00−31всв369799 0.0 1029166
03:00−32всв369893 0.0 1028130
06:00−33всв249992 0.0 102785
09:00−32всв379896 0.0 1027175
12:00−29всв3596100 0.0 1026259
15:00−27св2395100 0.0 1024307
18:00−28св2496100 0.0 1025223
21:00−28с1199100 0.1 102541
28 февраля, вс
вс2800:00−28с1399100 0.4 1025110
03:00−29сз1299100 0.6 102478
06:00−29зсз2598100 0.2 1025175
09:00−29з2697100 0.3 1026296
12:00−27з3793100 0.1 1026542
15:00−26з4793100 0.2 1027615
18:00−27з3893100 0.1 1028507
21:00−29з31095100 0.1 1029333
1 марта, пн
пн100:00−30з3894100 0.0 1029240
03:00−32з3794100 0.0 1030174
06:00−33з3794100 0.0 1030185
09:00−34з3794100 0.0 1030223
12:00−31з3693100 0.0 1030312
15:00−29зюз3593100 0.0 1029359
18:00−31зюз239698 0.0 102943
21:00−34з229891 0.0 102919
2 марта, вт
вт200:00−36з129882 0.0 102919
03:00−37з1210072 0.0 102819
06:00−38з1210051 0.0 102818
09:00−38з129854 0.0 102818
12:00−32зсз129153 0.0 1027283
15:00−29сз118872 0.0 1027369
18:00−33ссз119467 0.0 102719
21:00−36ссв129660 0.0 102819
3 марта, ср
ср300:00−37с129656 0.0 102919
03:00−38с129670 0.0 102919
06:00−39ссз129762 0.0 102918
09:00−38ссз129775 0.0 102926
12:00−32сз1293100 0.0 1028293
15:00−30зсз2493100 0.1 1028458
18:00−30сз2695100 0.0 1028357
21:00−32сз2696100 0.1 1028213